713  
NZUS99 KDVN 191110  
HRRRRR  
HOURLY WEATHER ROUNDUP  
NATIONAL WEATHER SERVICE QUAD CITIES IA IL  
600 AM CDT TUE SEP 19 2017  
 
NOTE: "FAIR" INDICATES FEW OR NO CLOUDS BELOW 12,000 FEET WITH  
NO SIGNIFICANT WEATHER AND/OR OBSTRUCTIONS TO VISIBILITY.  
------------------------------------------------------------------  
 
CITY SKY/WX TMP DP RH WIND PRES REMARKS  
BURLINGTON FOG 65 65 100 CALM 29.93S VSB 1/4  
CEDAR RAPIDS FOG 60 60 100 E3 29.93S VSB 1/4  
DAVENPORT CLOUDY 61 60 97 E6 29.97S FOG  
DUBUQUE PTCLDY 56 55 97 SW3 29.97R  
IOWA CITY FOG 64 63 96 E3 29.95S VSB 1/4  
MOLINE CLOUDY 63 61 93 E6 29.95R FOG  
------------------------------------------------------------------  
THE STATIONS BELOW ARE NOT NWS STATIONS AND ARE NOT SUBJECT TO NWS  
QUALITY CONTROL. SOME STATIONS DO NOT REPORT WEATHER SUCH AS FOG.  
* - STATIONS THAT REPORT TMP AND DP IN WHOLE DEGREES CELSIUS, WHICH  
ARE THEN CONVERTED TO FAHRENHEIT.  
------------------------------------------------------------------  
 
CITY SKY/WX TMP DP RH WIND PRES REMARKS  
CLINTON CLOUDY 61 60 97 E3 29.96S  
FAIRFIELD * FOG 64 64 100 S3 29.93R VSB<1/4  
FORT MADISON * FOG 66 66 100 CALM 29.94F VSB 1/4  
FREEPORT CLOUDY 57 57 99 CALM 29.98R FOG  
INDEPENDENCE * FOG 58 57 99 CALM 29.94S VSB 1/4  
KEOKUK * CLOUDY 66 66 100 CALM 29.93S FOG  
MACOMB CLOUDY 66 66 100 CALM 29.96S FOG  
MONTICELLO * CLOUDY 59 59 100 CALM 29.95S FOG  
MT PLEASANT FOG 61 61 100 CALM 29.94S VSB 1/4  
MUSCATINE * FOG 64 64 100 CALM 29.94S VSB<1/4  
SAVANNA CLOUDY 59 58 96 CALM 29.96S  
STERLING/R.F. N/A 59 59 100 CALM 29.96R FOG  
VINTON * FOG 57 57 100 CALM 29.94S VSB 1/2  
WASHINGTON * FOG 59 59 100 CALM 29.94S VSB<1/4  
------------------------------------------------------------------  
 
 
CLICK HERE TO GO TO PREVIOUS BULLETINS.

The Nexlab IL Page
The Nexlab IA Page
The Nexlab MO Page Main Text Page